Regional Weather Roundup
Issued by NWS

Home | Current Version | Previous Version | Text Only | Print | Product List | Glossary On
Versions: 1 2 3 4 5 6 7 8 9 10 11 12 13 14 15 16 17 18 19 20 21 22 23 24 25 26 27 28 29 30 31 32 33 34 35 36 37 38 39 40 41 42 43 44 45 46 47 48 49 50
000
ASUS43 KMKX 221511
RWRWI

WISCONSIN REGIONAL WEATHER ROUNDUP
NATIONAL WEATHER SERVICE MILWAUKEE/SULLIVAN WI
1000 AM CDT MON MAY 22 2017

NOTE: "FAIR" INDICATES FEW OR NO CLOUDS BELOW 12,000 FEET WITH NO
SIGNIFICANT WEATHER AND/OR OBSTRUCTIONS TO VISIBILITY.

WIZ001-002-006>008-014>016-023>028-221600-
NORTHWEST WISCONSIN

CITY           SKY/WX    TMP DP  RH WIND       PRES   REMARKS
SUPERIOR ARPT  NOT AVBL
ASHLAND        CLOUDY    50  42  74 SW12      29.77S
HAYWARD        CLOUDY    49  41  74 W8        29.80S
SIREN          CLOUDY    49  42  76 W10       29.83S
CUMBERLAND     CLOUDY    50  41  71 W16       29.82S
RICE LAKE      MOSUNNY   52  44  73 W15       29.84S
CHETEK         PTSUNNY   54  44  69 W5        29.83S
LADYSMITH      CLOUDY    51  45  78 SW13      29.84S
EAU CLAIRE     SUNNY     56  44  64 SW13G18   29.85S
MENOMONIE      SUNNY     57  45  63 SW10G17   29.86S
NEW RICHMOND   PTSUNNY   54  43  65 W13       29.85S
OSCEOLA        PTSUNNY   55  44  65 W16       29.87S
$$

WIZ003>005-009-010-017-018-221600-
NORTH CENTRAL WISCONSIN

CITY           SKY/WX    TMP DP  RH WIND       PRES   REMARKS
MANITOWISH WTR DRIZZLE   44  44 100 SW9       29.79S
ARBOR VITAE    PTSUNNY   49  45  85 W8        29.79S
WOODRUFF       PTSUNNY   49  45  85 W8        29.79S
RHINELANDER    CLOUDY    49  43  80 W10       29.82S
EAGLE RIVER    CLOUDY    46  43  91 W12G18    29.79S
LAND O LAKES   CLOUDY    48  42  80 W7        29.79F
PHILLIPS       CLOUDY    48  43  84 SW10G16   29.80S
TOMAHAWK       CLOUDY    49  41  74 SW7G16    29.83S
MEDFORD        CLOUDY    50  43  76 W12G17    29.84S
MERRILL        CLOUDY    51  45  79 SW13      29.84F
$$

WIZ029-030-035-036-043>047-221600-
CENTRAL WISCONSIN

CITY           SKY/WX    TMP DP  RH WIND       PRES   REMARKS
WAUSAU         PTSUNNY   53  43  68 W17G23    29.84F
MOSINEE        PTSUNNY   52  45  76 W12       29.87F
MARSHFIELD     SUNNY     54  44  69 SW14      29.86S
STEVENS POINT  MOSUNNY   53  41  62 W9G16     29.88F
WAUPACA        SUNNY     58  43  56 SW13G18   29.90F
WAUTOMA        SUNNY     57  44  62 SW10      29.91F
WISC RAPIDS    MOSUNNY   57  43  59 W13G18    29.90S
CAMP DOUGLAS   MOSUNNY   59  45  58 W10       29.89F
$$

WIZ011>013-019>022-031-037>040-048>050-221600-
NORTHEAST WISCONSIN

CITY           SKY/WX    TMP DP  RH WIND       PRES   REMARKS
ANTIGO         CLOUDY    49  44  82 W15       29.84F
SHAWANO        CLOUDY    55  43  64 W10G18    29.87S
OCONTO         PTSUNNY   55  42  62 W17       29.86R
STURGEON BAY   CLOUDY    52  43  71 W16G23    29.86R
GREEN BAY      PTSUNNY   54  46  74 W17G25    29.90R
MANITOWOC      PTSUNNY   55  42  61 W17G24    29.91S
APPLETON       PTSUNNY   54  39  58 SW18      29.89S
CLINTONVILLE   PTSUNNY   54  41  62 W15       29.88S
OSHKOSH        SUNNY     55  43  63 W10       29.91S
$$

WIZ032>034-041-042-053>061-221600-
SOUTHWEST WISCONSIN

CITY           SKY/WX    TMP DP  RH WIND       PRES   REMARKS
LA CROSSE      SUNNY     59  47  64 S10       29.89F
SPARTA         SUNNY     58  44  59 W5        29.90F
VIROQUA        SUNNY     56  46  69 SW10      29.91F
BOSCOBEL       CLOUDY    56  46  69 SW5       29.94F
PRAIRIE DU CHI CLOUDY    54  44  69 S6        29.95F
PLATTEVILLE    CLOUDY    53  49  87 S7        29.98F
$$

WIZ056-057-062-063-064-067-068-221600-
SOUTH CENTRAL WISCONSIN

CITY           SKY/WX    TMP DP  RH WIND       PRES   REMARKS
REEDSBURG      SUNNY     57  45  64 SW7       29.92F
BARABOO/DELLS  MOSUNNY   57  44  60 SW9       29.92F
LONE ROCK      PTSUNNY   58  45  62 SW8       29.94S
MINERAL POINT  CLOUDY    55  48  76 SW12      29.97R
MADISON        MOSUNNY   57  45  64 SW7       29.94F
MIDDLETON      MOSUNNY   61  46  58 SW13G20   29.94F
WATERTOWN      MOSUNNY   56  44  64 W12       29.95F
MONROE         SUNNY     55  45  67 S14G22    29.97F
JANESVILLE     MOSUNNY   61  46  59 SW13      29.97F
$$

WIZ051-052-058>065-066-070>072-221600-
SOUTHEAST WISCONSIN

CITY           SKY/WX    TMP DP  RH WIND       PRES   REMARKS
MILWAUKEE      SUNNY     60  42  51 SW15      29.97F
WAUKESHA       SUNNY     55  41  58 W10       29.98S
MILWAUKEE/TIMM SUNNY     57  39  51 W14       29.97F
RACINE         SUNNY     60  42  51 W12       29.99F
KENOSHA        SUNNY     60  44  55 W15       29.99S
FOND DU LAC    MOSUNNY   58  42  55 W10       29.93S
SHEBOYGAN      SUNNY     57  45  64 W14       29.92S
WEST BEND      SUNNY     55  43  62 W12G18    29.95S
JUNEAU         SUNNY     55  43  64 SW14      29.96R
$$

LSZ147-162-221600-
LAKE SUPERIOR

STATION/POSITION TIME  TEMP    WIND        PRES    WAVE
                       AIR SEA DIR/SP/G            HT/PER
                 (UTC) (F)     (DEG/KT/KT) (MB)    (FT/S)
W MID LAKE BUOY  1350   40 37  240/ 12/ 12 1007.3R   2/ 5
DEVILS ISLAND    1500   45     230/ 19/ 21 1007.4F
PORT WING        1230   47     220/  7/ 13 1008.1
SAXON HARBOR     1440   50     210/  8/ 11 1007.8F
$$

LMZ867-665-643>646-221600-
LAKE MICHIGAN

STATION/POSITION TIME  TEMP    WIND        PRES    WAVE
                       AIR SEA DIR/SP/G            HT/PER
                 (UTC) (F)     (DEG/KT/KT) (MB)    (FT/S)
CHAMBERS ISLAND  1430   51     220/  7/ 12 1009.8S
N MID LAKE BUOY  1450   42 39  220/ 12/ 14 1010.8R   3/ 5
NORTHPORT PIER   1440   51     260/  4/ 15 1010.2R
KEWAUNEE LAKESHO 1448   53     260/ 15/ 20 1011.5R
SHEBOYGAN LAKESH 1500   55     270/ 13/ 15 1013.1F
PORT WASHINGTON  1430   58     260/  8/ 17 1014.9S
ATWATER BUOY     1409   53     250/ 12/ 14 1014.9R
MILWAUKEE LAKESH 1450   56     250/ 11/ 14   N/A
S MID LAKE BUOY  1450   47 44  230/ 12/ 14 1016.1F   2/ 4
KENOSHA   LAKESH 1500   58     250/ 13/ 18 1015.2
$$

TC  - TEMPERATURE IN CELSIUS
VSB - VISIBILITY IN STATUTE MILES
WCI - WIND CHILL INDEX
HX  - HEAT INDEX




USA.gov is the U.S. government's official web portal to all federal, state and local government web resources and services.